Meridian, MS

9:49 AM CDT on September 25, 2017 (GMT -0500)
Key

Weather History for KMEI - October, 2012

Change the Weather History Date:

Monday, October 1, 2012

  Actual Average Record
Temperature  
Mean Temperature 68 °F 70 °F  
Max Temperature 74 °F 82 °F 95 °F (1954)
Min Temperature 61 °F 57 °F 40 °F (1967)
Degree Days  
Heating Degree Days 0 1  
Month to date heating degree days 0 1  
Since 1 July heating degree days 1 8  
Cooling Degree Days 3 6  
Month to date cooling degree days 3 6  
Year to date cooling degree days 2132 1929  
Growing Degree Days 16 (Base 50)    
Moisture  
Dew Point 66 °F    
Average Humidity 94    
Maximum Humidity 100    
Minimum Humidity 87    
Precipitation  
Precipitation 0.56 in 0.11 in 1.07 in (1988)
Month to date precipitation 0.56 0.11  
Year to date precipitation 49.90 42.50  
Sea Level Pressure  
Sea Level Pressure 29.57 in    
Wind  
Wind Speed 8 mph (SW)    
Max Wind Speed 16 mph    
Max Gust Speed 21 mph    
Visibility 8 miles    
Events Rain    
T = Trace of Precipitation, MM = Missing Value Source: NWS Daily Summary

Daily Weather History Graph

Daily Weather History Graph

Search for Another Location

Airport or City:

Trip Planner

Search our weather history database for the weather conditions in past years. The results will help you decide how hot, cold, wet, or windy it might be!

Date:

Astronomy

Oct. 01, 2012 Rise Set
Actual Time 6:49 AM CDT 6:39 PM CDT
Civil Twilight 6:24 AM CDT 7:03 PM CDT
Nautical Twilight 5:56 AM CDT 7:31 PM CDT
Astronomical Twilight 5:27 AM CDT 8:00 PM CDT
Moon 7:25 PM CDT (10/1) 8:10 AM CDT (10/1)
Length of Visible Light 12h 38m
Length of Day
11h 49m
Full, 98% of the Moon is Illuminated
Oct 1
Full
Oct 8
Last Quarter
Oct 15
New
Oct 21
First Quarter
Oct 29
Full

Hourly Weather History & Observations

Time (CDT) Temp. Dew Point Humidity Pressure Visibility Wind Dir Wind Speed Gust Speed Precip Events Conditions
12:58 AM 73.9 °F 72.0 °F 93% 29.53 in 10.0 mi SSE 10.4 mph - N/A   Overcast
1:33 AM 73.4 °F 71.6 °F 94% 29.53 in 10.0 mi South 9.2 mph - N/A   Mostly Cloudy
1:40 AM 73.4 °F 71.6 °F 94% 29.53 in 10.0 mi South 11.5 mph - N/A   Mostly Cloudy
1:58 AM 73.0 °F 71.1 °F 93% 29.52 in 10.0 mi South 10.4 mph - N/A   Mostly Cloudy
2:22 AM 73.4 °F 71.6 °F 94% 29.52 in 10.0 mi South 8.1 mph - N/A   Mostly Cloudy
2:58 AM 72.0 °F 71.1 °F 97% 29.50 in 10.0 mi SSE 5.8 mph - N/A   Mostly Cloudy
3:58 AM 73.0 °F 71.1 °F 93% 29.49 in 10.0 mi SSE 6.9 mph - N/A   Overcast
4:32 AM 73.4 °F 71.6 °F 94% 29.48 in 2.5 mi SSE 11.5 mph - 0.04 in Rain Heavy Rain
4:41 AM 71.6 °F 71.6 °F 100% 29.48 in 1.2 mi SSE 13.8 mph 20.7 mph 0.19 in Rain Heavy Rain
4:58 AM 72.0 °F 71.1 °F 97% 29.47 in 2.5 mi SW 13.8 mph 17.3 mph 0.46 in Rain Light Rain
5:05 AM 71.6 °F 71.6 °F 100% 29.48 in 6.0 mi SSW 9.2 mph - 0.00 in Rain Light Rain
5:56 AM 71.6 °F 71.6 °F 100% 29.49 in 10.0 mi South 6.9 mph - 0.05 in   Scattered Clouds
5:58 AM 72.0 °F 71.1 °F 97% 29.48 in 10.0 mi South 5.8 mph - 0.05 in   Scattered Clouds
6:36 AM 71.6 °F 71.6 °F 100% 29.50 in 10.0 mi South 4.6 mph - 0.01 in   Overcast
6:58 AM 72.0 °F 71.1 °F 97% 29.49 in 8.0 mi SSW 5.8 mph - 0.01 in   Overcast
7:05 AM 71.6 °F 71.6 °F 100% 29.50 in 8.0 mi South 4.6 mph - N/A   Overcast
7:15 AM 71.6 °F 71.6 °F 100% 29.51 in 7.0 mi South 5.8 mph - N/A   Overcast
7:49 AM 71.6 °F 69.8 °F 94% 29.52 in 10.0 mi SW 11.5 mph - 0.01 in   Overcast
7:58 AM 71.1 °F 69.1 °F 93% 29.51 in 10.0 mi SW 11.5 mph - 0.01 in   Overcast
8:05 AM 69.8 °F 69.8 °F 100% 29.52 in 10.0 mi SW 10.4 mph - N/A   Overcast
8:13 AM 69.8 °F 69.8 °F 100% 29.52 in 10.0 mi SW 11.5 mph - N/A   Overcast
8:46 AM 68.0 °F 66.2 °F 94% 29.54 in 10.0 mi SW 11.5 mph - N/A   Mostly Cloudy
8:58 AM 66.9 °F 64.9 °F 93% 29.55 in 10.0 mi SW 9.2 mph - N/A   Mostly Cloudy
9:35 AM 66.2 °F 62.6 °F 88% 29.57 in 10.0 mi WSW 10.4 mph - N/A   Overcast
9:58 AM 64.9 °F 63.0 °F 93% 29.57 in 10.0 mi SW 11.5 mph - N/A   Overcast
10:08 AM 64.4 °F 62.6 °F 94% 29.58 in 10.0 mi SSW 11.5 mph - N/A   Overcast
10:58 AM 64.0 °F 61.0 °F 90% 29.59 in 10.0 mi SSW 12.7 mph 18.4 mph N/A   Overcast
11:58 AM 64.9 °F 62.1 °F 90% 29.59 in 10.0 mi SW 11.5 mph - N/A   Overcast
12:20 PM 66.2 °F 62.6 °F 88% 29.59 in 10.0 mi SSW 13.8 mph - N/A   Overcast
12:51 PM 64.4 °F 62.6 °F 94% 29.59 in 7.0 mi SW 11.5 mph - 0.00 in Rain Light Rain
12:58 PM 66.0 °F 62.1 °F 87% 29.58 in 9.0 mi SW 10.4 mph - 0.00 in Rain Light Rain
1:24 PM 66.2 °F 60.8 °F 83% 29.59 in 10.0 mi SW 12.7 mph - 0.00 in   Overcast
1:58 PM 64.9 °F 60.1 °F 84% 29.58 in 10.0 mi SW 12.7 mph - 0.00 in   Overcast
2:58 PM 64.9 °F 60.1 °F 84% 29.58 in 10.0 mi WSW 9.2 mph - N/A   Overcast
3:58 PM 64.0 °F 61.0 °F 90% 29.60 in 10.0 mi WSW 6.9 mph - N/A   Overcast
4:58 PM 63.0 °F 61.0 °F 93% 29.62 in 4.0 mi SW 5.8 mph - N/A   Overcast
5:31 PM 62.6 °F 60.8 °F 94% 29.63 in 2.5 mi WSW 5.8 mph - N/A   Overcast
5:58 PM 62.1 °F 61.0 °F 96% 29.62 in 2.5 mi West 4.6 mph - N/A   Overcast
6:05 PM 62.6 °F 60.8 °F 94% 29.63 in 5.0 mi West 4.6 mph - N/A   Overcast
6:44 PM 62.6 °F 60.8 °F 94% 29.64 in 10.0 mi WSW 3.5 mph - 0.01 in   Overcast
6:58 PM 62.1 °F 61.0 °F 96% 29.63 in 10.0 mi SW 3.5 mph - 0.01 in   Overcast
7:07 PM 62.6 °F 60.8 °F 94% 29.64 in 10.0 mi Calm Calm - N/A   Overcast
7:58 PM 62.1 °F 61.0 °F 96% 29.65 in 10.0 mi SW 3.5 mph - N/A   Overcast
8:30 PM 62.6 °F 60.8 °F 94% 29.68 in 8.0 mi Calm Calm - N/A   Overcast
8:58 PM 62.1 °F 61.0 °F 96% 29.68 in 4.0 mi Calm Calm - N/A   Overcast
9:29 PM 62.6 °F 60.8 °F 94% 29.70 in 9.0 mi WNW 4.6 mph - N/A   Overcast
9:58 PM 62.1 °F 61.0 °F 96% 29.70 in 5.0 mi WNW 4.6 mph - 0.01 in Rain Light Rain
10:25 PM 62.6 °F 60.8 °F 94% 29.71 in 8.0 mi WNW 4.6 mph - 0.01 in Rain Light Rain
10:58 PM 62.1 °F 61.0 °F 96% 29.71 in 7.0 mi NW 4.6 mph - 0.01 in   Overcast
11:46 PM 60.8 °F 60.8 °F 100% 29.71 in 6.0 mi NW 9.2 mph - N/A   Overcast
11:58 PM 61.0 °F 60.1 °F 97% 29.71 in 8.0 mi NW 9.2 mph - N/A   Overcast